sat.trackr.live / text

‹ back to catalog

STARLINK-5591

NORAD 55771 · 2023-028AG

PAYLOAD ACTIVE UNKNOWN

§ Identity

Operator
Country
US
Launch date
2023-03-03
Launch site
AFWTR
Launch vehicle
Mass (kg)
RCS (m²)

Purposes: comms

External: N2YO · Heavens-Above · Gunter

§ Orbital elements

Epoch: 2026-05-25T03:07:43.409856Z

Period
96.11 min
Inclination
70.0004°
Eccentricity
0.0002293
Mean motion
14.98332453 rev/d
Perigee alt
570.5 km
Apogee alt
573.6 km
Semi-major
6,950.2 km
B*
-9.8537e-5
RAAN
31.7073°
Arg perigee
272.4089°
Mean anomaly
87.6808°
Rev number
17,798

§ Raw data

STARLINK-55911 55771U 23028AG  26145.13036354 -.00001268  00000+0 -98537-4 0  99972 55771  70.0004  31.7073 0002293 272.4089  87.6808 14.98332453177988

JSON: /api/v1/satellites/55771 · /tle

For live sub-satellite position, see the globe view (requires WebGL).

§ Visibility from observer

Set your observer location to see the next 7 days of passes ≥ 10°. The values pass through the URL so the page stays shareable.

No JS? Fill the form by hand. The geolocation button needs JavaScript.